COSMOS 2251 DEB

Satellite information

Favourite Embed

Satellite Type and Status

DEBRISIN ORBIT

Key statistics

Satellite COSMOS 2251 DEB at a glance.

Uptime

11812

Days in orbit

Revolutions

≈ 13.7

Per day

Orbit

LEO

Low Earth Orbit

Inclination

74.1

Latest

Satellite identification and parameters

Extended collection of information and parameters for COSMOS 2251 DEB.

Object identification

Identified? True

Debris? True

Object name: COSMOS 2251 DEB

International designator: 1993-036BXF

Object number (NORAD): 47051

Object ID (CCSDS): 47051

Country: COMMONWEALTH OF INDEPENDENT STATES (CIS)

Current information (Y/N): Y

RCS size: SMALL

Orbital parameters

Period: 105.368 minutes

Inclination: 74.102 deg

SMA: 7389.799 km

Apoapsis: 1263.125 km

Periapsis: 760.203 km

RAAN: 320.5362 deg

Eccentricy: 0.03402808

Argument of periapsis: 93.2365 deg

Mean anomaly: 82.1195 deg

Mean motion: 13.66639001 rev/day

Mean motion (dot): 0.00000889 rev/day2

B* drag term: 0.00073315912 1/REarth

Two-line elements (TLE)

Creation date: Sept. 20, 2025, 8:33 a.m.

Reference frame: TEME

Reference center: EARTH

Epoch: Sept. 19, 2025, 9:38 p.m. UTC

TLE line 0: 0 COSMOS 2251 DEB

TLE line 1: 1 47051U 93036BXF 25262.90189449 .00000889 00000-0 73316-3 0 9997

TLE line 2: 2 47051 74.1020 320.5362 0340281 93.2365 82.1195 13.66639001587922

Live tracking on map

Real-time ground track for satellite COSMOS 2251 DEB.

In-orbit conjunctions

A list of the most updated potential collisions computed for object COSMOS 2251 DEB.

Target Orbit TCA Probability of collision Miss distance Type
THORAD AGENA D DEB SSO 2024-09-26 21:26:41 0.0008771642 21.0 (m) DEBRIS
NOAA 16 DEB SSO 2024-09-26 19:45:29 0.0002631656 236.0 (m) DEBRIS

Associated space launch

Military communications satellite. Destroyed in a collision with Iridium 33.

COSMOS 2251 DEB was lifted into orbit during the mission ‘Kosmos-3M | Strela-2M 51’, on board a Kosmos-3M space rocket.

The launch took place on June 16, 1993, 4:17 a.m. from 132/1 (132L).

For more information about the launch, click the button.

Launch to space Kosmos-3M | Strela-2M 51
Kosmos-3M | Strela-2M 51

Agency: N/A

Status: Launch Successful

Launch date: June 16, 1993, 4:17 a.m. UTC

Rocket: Kosmos-3M

Launch pad: 132/1 (132L)

Location: Plesetsk Cosmodrome, Russian Federation

...

Latest news about this satellite

There are no fresh news available about this satellite. Check back as we update our databases every day.


Newsletter sign-up

Weekly statistics, charts and insights to help you stay on top of the space industry.